• In Austria
  • List of Countries
  • For 7 days
  • Water Temperature
  • Satellite Maps
  • Weather Map
  • News
  • Weather Widgets
  • user-avatar
    Login

    Hourly Weather Marsa Alam

    Today, 18 October, Wednesday

    Time Temperature Precipitation Wind Pressure Humidity
    00:00 +21°C° 0 mm 3 mps 714 mmHg 46%
    01:00 +21°C° 0 mm 3 mps 714 mmHg 47%
    02:00 +20°C° 0 mm 2 mps 714 mmHg 46%
    03:00 +20°C° 0 mm 2 mps 714 mmHg 48%
    04:00 +20°C° 0 mm 2 mps 714 mmHg 50%
    05:00 +19°C° 0 mm 2 mps 714 mmHg 51%
    06:00 +21°C° 0 mm 3 mps 714 mmHg 48%
    07:00 +24°C° 0 mm 3 mps 715 mmHg 44%
    08:00 +25°C° 0 mm 3 mps 715 mmHg 40%
    09:00 +27°C° 0 mm 3 mps 715 mmHg 35%
    10:00 +28°C° 0 mm 3 mps 715 mmHg 31%
    11:00 +30°C° 0 mm 4 mps 715 mmHg 26%
    12:00 +30°C° 0 mm 4 mps 715 mmHg 25%
    13:00 +32°C° 0 mm 4 mps 714 mmHg 25%
    14:00 +32°C° 0 mm 4 mps 714 mmHg 24%
    15:00 +32°C° 0 mm 4 mps 714 mmHg 27%
    16:00 +30°C° 0 mm 4 mps 714 mmHg 30%
    17:00 +29°C° 0 mm 4 mps 714 mmHg 34%
    18:00 +28°C° 0 mm 3 mps 714 mmHg 39%
    19:00 +27°C° 0 mm 3 mps 714 mmHg 44%
    20:00 +25°C° 0 mm 2 mps 714 mmHg 48%
    21:00 +25°C° 0 mm 2 mps 714 mmHg 47%
    22:00 +24°C° 0 mm 1 mps 714 mmHg 46%
    23:00 +24°C° 0 mm 1 mps 714 mmHg 44%

    Tomorrow, 19 October, Thursday

    Time Temperature Precipitation Wind Pressure Humidity
    00:00 +23°C° 0 mm 1 mps 714 mmHg 42%
    01:00 +23°C° 0 mm 1 mps 714 mmHg 39%
    02:00 +22°C° 0 mm 1 mps 714 mmHg 36%
    03:00 +22°C° 0 mm 1 mps 714 mmHg 35%
    04:00 +21°C° 0 mm 1 mps 714 mmHg 34%
    05:00 +21°C° 0 mm 1 mps 714 mmHg 33%
    06:00 +23°C° 0 mm 1 mps 714 mmHg 28%
    07:00 +26°C° 0 mm 1 mps 715 mmHg 24%
    08:00 +28°C° 0 mm 1 mps 716 mmHg 19%
    09:00 +29°C° 0 mm 1 mps 716 mmHg 18%
    10:00 +31°C° 0 mm 1 mps 716 mmHg 16%
    11:00 +32°C° 0 mm 2 mps 716 mmHg 14%
    12:00 +34°C° 0 mm 2 mps 716 mmHg 14%
    13:00 +34°C° 0 mm 3 mps 715 mmHg 14%
    14:00 +35°C° 0 mm 3 mps 715 mmHg 14%
    15:00 +34°C° 0 mm 3 mps 715 mmHg 17%
    16:00 +31°C° 0 mm 3 mps 715 mmHg 20%
    17:00 +30°C° 0 mm 2 mps 715 mmHg 24%
    18:00 +29°C° 0 mm 2 mps 715 mmHg 28%
    19:00 +28°C° 0 mm 2 mps 715 mmHg 32%
    20:00 +26°C° 0 mm 2 mps 715 mmHg 37%
    21:00 +26°C° 0 mm 2 mps 715 mmHg 36%
    22:00 +25°C° 0 mm 2 mps 715 mmHg 36%
    23:00 +25°C° 0 mm 2 mps 715 mmHg 35%

    Day after tomorrow, 20 October, Friday

    Time Temperature Precipitation Wind Pressure Humidity
    00:00 +24°C° 0 mm 2 mps 715 mmHg 34%
    01:00 +24°C° 0 mm 2 mps 715 mmHg 33%
    02:00 +24°C° 0 mm 2 mps 714 mmHg 31%
    03:00 +23°C° 0 mm 2 mps 714 mmHg 31%
    04:00 +23°C° 0 mm 2 mps 714 mmHg 31%
    05:00 +21°C° 0 mm 2 mps 714 mmHg 31%
    06:00 +24°C° 0 mm 2 mps 715 mmHg 29%
    07:00 +26°C° 0 mm 2 mps 715 mmHg 26%
    08:00 +28°C° 0 mm 3 mps 716 mmHg 24%
    09:00 +29°C° 0 mm 3 mps 716 mmHg 22%
    10:00 +31°C° 0 mm 3 mps 716 mmHg 21%
    11:00 +33°C° 0 mm 3 mps 717 mmHg 19%
    12:00 +34°C° 0 mm 3 mps 716 mmHg 19%
    13:00 +34°C° 0 mm 4 mps 716 mmHg 19%
    14:00 +35°C° 0 mm 4 mps 715 mmHg 19%
    15:00 +33°C° 0 mm 4 mps 715 mmHg 22%
    16:00 +32°C° 0 mm 4 mps 715 mmHg 26%
    17:00 +30°C° 0 mm 3 mps 714 mmHg 30%
    18:00 +28°C° 0 mm 3 mps 715 mmHg 35%
    19:00 +27°C° 0 mm 2 mps 715 mmHg 40%
    20:00 +26°C° 0 mm 2 mps 715 mmHg 45%
    21:00 +25°C° 0 mm 2 mps 715 mmHg 43%
    22:00 +25°C° 0 mm 2 mps 715 mmHg 42%
    23:00 +24°C° 0 mm 2 mps 715 mmHg 41%

    21 October, Saturday

    Time Temperature Precipitation Wind Pressure Humidity
    00:00 +24°C° 0 mm 2 mps 715 mmHg 39%
    01:00 +24°C° 0 mm 2 mps 715 mmHg 38%
    02:00 +23°C° 0 mm 2 mps 715 mmHg 36%
    03:00 +23°C° 0 mm 2 mps 715 mmHg 37%
    04:00 +21°C° 0 mm 2 mps 714 mmHg 37%
    05:00 +21°C° 0 mm 2 mps 714 mmHg 38%
    06:00 +24°C° 0 mm 2 mps 715 mmHg 35%
    07:00 +26°C° 0 mm 2 mps 715 mmHg 31%
    08:00 +28°C° 0 mm 3 mps 716 mmHg 28%
    09:00 +29°C° 0 mm 3 mps 716 mmHg 25%
    10:00 +31°C° 0 mm 3 mps 716 mmHg 22%
    11:00 +33°C° 0 mm 3 mps 716 mmHg 20%
    12:00 +34°C° 0 mm 3 mps 715 mmHg 19%
    13:00 +34°C° 0 mm 3 mps 715 mmHg 19%
    14:00 +35°C° 0 mm 4 mps 714 mmHg 19%
    15:00 +33°C° 0 mm 3 mps 714 mmHg 23%
    16:00 +31°C° 0 mm 3 mps 714 mmHg 27%
    17:00 +30°C° 0 mm 3 mps 714 mmHg 31%
    18:00 +29°C° 0 mm 2 mps 714 mmHg 37%
    19:00 +27°C° 0 mm 2 mps 714 mmHg 42%
    20:00 +26°C° 0 mm 2 mps 715 mmHg 48%
    21:00 +26°C° 0 mm 1 mps 714 mmHg 49%
    22:00 +25°C° 0 mm 1 mps 714 mmHg 50%
    23:00 +24°C° 0 mm 1 mps 714 mmHg 52%

    22 October, Sunday

    Time Temperature Precipitation Wind Pressure Humidity
    00:00 +24°C° 0 mm 1 mps 714 mmHg 51%
    01:00 +24°C° 0 mm 1 mps 714 mmHg 50%
    02:00 +23°C° 0 mm 1 mps 713 mmHg 49%
    03:00 +23°C° 0 mm 1 mps 713 mmHg 49%
    04:00 +22°C° 0 mm 1 mps 713 mmHg 49%
    05:00 +22°C° 0 mm 1 mps 714 mmHg 49%
    06:00 +24°C° 0 mm 1 mps 714 mmHg 44%
    07:00 +26°C° 0 mm 1 mps 714 mmHg 39%
    08:00 +27°C° 0 mm 1 mps 715 mmHg 33%
    09:00 +29°C° 0 mm 2 mps 715 mmHg 29%
    10:00 +31°C° 0 mm 2 mps 715 mmHg 25%
    11:00 +32°C° 0 mm 2 mps 715 mmHg 21%
    12:00 +34°C° 0 mm 2 mps 714 mmHg 21%
    13:00 +34°C° 0 mm 3 mps 713 mmHg 21%
    14:00 +35°C° 0 mm 3 mps 713 mmHg 21%
    15:00 +34°C° 0 mm 3 mps 713 mmHg 24%
    16:00 +33°C° 0 mm 3 mps 713 mmHg 26%
    17:00 +31°C° 0 mm 2 mps 713 mmHg 29%
    18:00 +29°C° 0 mm 2 mps 713 mmHg 33%
    19:00 +28°C° 0 mm 2 mps 713 mmHg 37%
    20:00 +27°C° 0 mm 1 mps 713 mmHg 42%
    21:00 +26°C° 0 mm 1 mps 713 mmHg 43%
    22:00 +26°C° 0 mm 1 mps 713 mmHg 44%
    23:00 +25°C° 0 mm 1 mps 713 mmHg 45%

    23 October, Monday

    Time Temperature Precipitation Wind Pressure Humidity
    00:00 +25°C° 0 mm 1 mps 713 mmHg 44%
    01:00 +24°C° 0 mm 2 mps 713 mmHg 43%
    02:00 +24°C° 0 mm 2 mps 712 mmHg 42%
    03:00 +23°C° 0 mm 2 mps 712 mmHg 43%
    04:00 +21°C° 0 mm 2 mps 713 mmHg 45%
    05:00 +21°C° 0 mm 2 mps 713 mmHg 46%
    06:00 +23°C° 0 mm 2 mps 713 mmHg 43%
    07:00 +25°C° 0 mm 3 mps 714 mmHg 40%
    08:00 +26°C° 0 mm 3 mps 714 mmHg 37%
    09:00 +27°C° 0 mm 3 mps 714 mmHg 34%
    10:00 +28°C° 0 mm 3 mps 714 mmHg 30%
    11:00 +30°C° 0 mm 3 mps 714 mmHg 27%
    12:00 +30°C° 0 mm 4 mps 714 mmHg 26%
    13:00 +32°C° 0 mm 4 mps 714 mmHg 25%
    14:00 +32°C° 0 mm 4 mps 713 mmHg 24%
    15:00 +30°C° 0 mm 4 mps 713 mmHg 29%
    16:00 +29°C° 0 mm 4 mps 713 mmHg 34%
    17:00 +27°C° 0 mm 4 mps 713 mmHg 40%
    18:00 +26°C° 0 mm 4 mps 714 mmHg 45%
    19:00 +25°C° 0 mm 3 mps 714 mmHg 50%
    20:00 +24°C° 0 mm 3 mps 714 mmHg 55%
    21:00 +24°C° 0 mm 3 mps 714 mmHg 54%
    22:00 +24°C° 0 mm 3 mps 714 mmHg 53%
    23:00 +22°C° 0 mm 3 mps 714 mmHg 52%
    Show more